Regional Weather Roundup
Issued by NWS Columbia, SC

Home | Current Version | Previous Version | Text Only | Print | Product List | Glossary On
Versions: 1 2 3 4 5 6 7 8 9 10 11 12 13 14 15 16 17 18 19 20 21 22 23 24 25 26 27 28 29 30 31 32 33 34 35 36 37 38 39 40 41 42 43 44 45 46 47 48 49 50
000
ASUS42 KCAE 261910
RWRCAE
REGIONAL WEATHER ROUNDUP
NATIONAL WEATHER SERVICE COLUMBIA SC
300 PM EDT SUN APR 26 2015

NOTE: "FAIR" INDICATES FEW OR NO CLOUDS BELOW 12,000 FEET WITH NO
SIGNIFICANT WEATHER AND/OR OBSTRUCTIONS TO VISIBILITY.

NOT ALL STATIONS ARE QUALITY CONTROLLED BY THE NATIONAL
WEATHER SERVICE. USE DATA WITH CAUTION...ESPECIALLY
DEWPOINT OBSERVATIONS.

SCZ001>056-GAZ040-063>065-077-262000-
...UPSTATE SOUTH CAROLINA...

CITY           SKY/WX    TMP DP  RH WIND       PRES   REMARKS
LIBERTY        MOCLDY    79  52  39 NW12G25   29.61S
SPARTANBURG    MOSUNNY   64  55  72 E10       29.65S
CLEMSON        SUNNY     82  51  34 NW15G28   29.62S
GREENVILLE     PTSUNNY   67  57  70 E12       29.63S
GREER          PTSUNNY   65  57  75 E10       29.62F
ROCK HILL      CLOUDY    57  50  77 VRB7      29.68F
CHESTER        LGT RAIN  55  54  94 NE9       29.68S
LAURENS        PTCLDY    70  64  83 NE13      29.62R


...CENTRAL SOUTH CAROLINA...

CITY           SKY/WX    TMP DP  RH WIND       PRES   REMARKS
COLUMBIA APT   MOSUNNY   85  57  38 W18G26    29.57F
COLUMBIA OWENS MOSUNNY   85  57  38 VRB6G20   29.59F
DARLINGTON     CLOUDY    59  50  72 NE13      29.69S
FLORENCE       CLOUDY    61  53  75 NE13      29.66S
MCENTIRE ANGB  MOSUNNY   81  65  56 NE10      29.59S
ORANGEBURG     MOSUNNY   86  58  38 W16G24    29.59F
SUMTER SHAW    SUNNY     73  60  64 NE13G20   29.60S
AIKEN          FAIR      81  55  41 SW16      29.65F
BARNWELL       FAIR      84  63  48 W12G18    29.62F
MANNING        FAIR      81  52  36 N8G16     29.58F
CAMDEN         CLOUDY    63  54  72 N10G16    29.65F
LANCASTER      CLOUDY    54  54 100 NE8G17    29.69R
WINNSBORO      PTCLDY    70  59  68 N9G16     29.63R


...EASTERN AND COASTAL SOUTH CAROLINA...

CITY           SKY/WX    TMP DP  RH WIND       PRES   REMARKS
MYRTLE BEACH   MOSUNNY   72  57  60 N17       29.64S
N MYRTLE BCH   PTSUNNY   68  56  65 N15G22    29.63S
CONWAY         MOCLDY    64  57  77 N10       29.65R HAZE
MARION         CLOUDY    61  54  77 N10       29.67S
HARTSVILLE     CLOUDY    59  52  77 NE9G16    29.67F
FLORENCE       CLOUDY    61  53  75 NE13      29.66S
DARLINGTON     CLOUDY    59  50  72 NE13      29.69S
CHARLESTON APT MOSUNNY   86  59  39 W12G26    29.60F
WALTERBORO     PTCLDY    86  55  35 W12G23    29.62S
BEAUFORT       MOSUNNY   86  62  44 W16G25    29.62F


...EASTERN GEORGIA...

CITY           SKY/WX    TMP DP  RH WIND       PRES   REMARKS
AUGUSTA BUSH F MOSUNNY   83  60  45 W13G18    29.61F
AUGUSTA DANIEL MOSUNNY   83  60  45 W10G20    29.63F
THOMSON        MOSUNNY   84  66  54 W8G17     29.67F
CLAXTON        FAIR      84  63  48 W10G21    29.66F
SAVANNAH       MOSUNNY   86  60  41 W13       29.64F


...SOUTHERN NORTH CAROLINA...

CITY           SKY/WX    TMP DP  RH WIND       PRES   REMARKS
CHARLOTTE      CLOUDY    55  47  74 NE8       29.70S
MONROE         CLOUDY    53  48  83 NE16      29.69S
ROCKINGHAM     CLOUDY    57  49  75 N7        29.69F
ASHEVILLE      CLOUDY    64  53  67 N15       29.68S

$$


USA.gov is the U.S. government's official web portal to all federal, state and local government web resources and services.